Location: Noordwijk
(52.2400°N, 4.4500°E)
Time: 03:15:31
(UTC+00:00)

AO-27 - Pass Details

Date: 13 December 2022
Orbit: 784 x 798 km, 98.9° (Epoch: 30 January)

Event Time Altitude Azimuth Distance (km) Brightness Sun altitude
Exits shadow 18:21:27 30° 10° (N) 1,404 8.8 -24.9°
Drops below altitude 10° 18:24:16 10° 353° (N) 2,384 10.2 -25.3°
Sets 18:26:40 0° 348° (NNW) 3,318 11.0 -25.7°
